N30 EFKU-EFJO

Flight info

Callsign N30
Flight time 0h 31m
Altitude 10000
Route EFKU ETEN4E ETENA ETEN4B JOAP
Aircraft C295/M-SDFGHIRY/S

Departure

Time 2026-04-16 13:10
Airport Kuopio Airport (EFKU)

Arrival

Time 2026-04-16 13:41
Airport Joensuu Airport (EFJO)
Time Latitude Longitude Altitude Speed Heading
2026-04-16 12:51 63.00361 27.79094 316 ft 0 kts 68°
2026-04-16 13:07 63.00355 27.79152 314 ft 8 kts 147°
2026-04-16 13:07 63.00286 27.79223 314 ft 13 kts 158°
2026-04-16 13:07 63.00207 27.79296 313 ft 6 kts 147°
2026-04-16 13:07 63.00205 27.79427 311 ft 13 kts 66°
2026-04-16 13:08 63.00242 27.79605 309 ft 2 kts 85°
2026-04-16 13:08 63.00149 27.79845 313 ft 22 kts 154°
2026-04-16 13:08 63.00031 27.79950 317 ft 16 kts 153°
2026-04-16 13:08 62.99994 27.79987 318 ft 7 kts 155°
2026-04-16 13:09 62.99977 27.80212 313 ft 17 kts 39°
2026-04-16 13:09 63.00154 27.80265 310 ft 25 kts
2026-04-16 13:09 63.00392 27.80069 306 ft 75 kts 338°
2026-04-16 13:09 63.01039 27.79419 868 ft 96 kts 329°
2026-04-16 13:10 63.01764 27.78520 1606 ft 127 kts 330°
2026-04-16 13:10 63.02639 27.77473 2521 ft 145 kts 333°
2026-04-16 13:10 63.03566 27.76663 3712 ft 143 kts 340°
2026-04-16 13:10 63.04521 27.75940 4797 ft 149 kts 340°
2026-04-16 13:11 63.05502 27.75165 5923 ft 150 kts 338°
2026-04-16 13:11 63.06482 27.74335 7026 ft 152 kts 338°
2026-04-16 13:11 63.07473 27.73471 8097 ft 154 kts 338°
2026-04-16 13:11 63.08499 27.72791 9076 ft 157 kts
2026-04-16 13:12 63.09444 27.73937 10047 ft 168 kts 50°
2026-04-16 13:12 63.10203 27.76484 10095 ft 225 kts 62°
2026-04-16 13:12 63.10871 27.79765 10048 ft 243 kts 68°
2026-04-16 13:12 63.11504 27.83366 10030 ft 256 kts 70°
2026-04-16 13:13 63.11670 27.87284 10006 ft 264 kts 101°
2026-04-16 13:13 63.10868 27.90954 10009 ft 271 kts 127°
2026-04-16 13:13 63.09566 27.93996 10007 ft 274 kts 140°
2026-04-16 13:13 63.08044 27.96588 9997 ft 277 kts 144°
2026-04-16 13:14 63.06473 27.99056 9996 ft 278 kts 145°
2026-04-16 13:14 63.04894 28.01539 9997 ft 278 kts 144°
2026-04-16 13:14 63.03337 28.04072 9996 ft 278 kts 143°
2026-04-16 13:14 63.01795 28.06656 9996 ft 278 kts 143°
2026-04-16 13:15 63.00255 28.09257 9997 ft 278 kts 142°
2026-04-16 13:15 62.98725 28.11853 9997 ft 278 kts 143°
2026-04-16 13:15 62.97192 28.14466 9998 ft 278 kts 142°
2026-04-16 13:15 62.95658 28.17054 9998 ft 278 kts 143°
2026-04-16 13:16 62.94116 28.19632 9999 ft 279 kts 143°
2026-04-16 13:16 62.92575 28.22202 10001 ft 279 kts 143°
2026-04-16 13:16 62.91199 28.25076 9993 ft 277 kts 124°
2026-04-16 13:16 62.90358 28.28842 9999 ft 274 kts 115°
2026-04-16 13:17 62.89533 28.32627 10002 ft 276 kts 116°
2026-04-16 13:17 62.88679 28.36420 9999 ft 279 kts 117°
2026-04-16 13:17 62.87827 28.40230 9999 ft 273 kts 116°
2026-04-16 13:17 62.86981 28.43991 9999 ft 277 kts 116°
2026-04-16 13:18 62.86375 28.47943 9999 ft 273 kts 98°
2026-04-16 13:18 62.86165 28.52088 10000 ft 274 kts 96°
2026-04-16 13:18 62.85936 28.56248 10002 ft 276 kts 99°
2026-04-16 13:18 62.85544 28.60367 9999 ft 277 kts 105°
2026-04-16 13:19 62.84959 28.64398 9998 ft 278 kts 109°
2026-04-16 13:19 62.84290 28.68373 10000 ft 279 kts 111°
2026-04-16 13:19 62.83602 28.72345 9998 ft 279 kts 111°
2026-04-16 13:19 62.82920 28.76330 9998 ft 279 kts 110°
2026-04-16 13:20 62.82362 28.80357 9993 ft 278 kts 97°
2026-04-16 13:20 62.82659 28.84490 9995 ft 278 kts 66°
2026-04-16 13:20 62.83850 28.87706 9997 ft 278 kts 36°
2026-04-16 13:20 62.85629 28.89230 10001 ft 278 kts
2026-04-16 13:21 62.87517 28.88611 9999 ft 277 kts 336°
2026-04-16 13:21 62.89003 28.86027 10007 ft 274 kts 308°
2026-04-16 13:21 62.90072 28.82581 10008 ft 273 kts 302°
2026-04-16 13:21 62.91037 28.78988 9999 ft 274 kts 299°
2026-04-16 13:22 62.91869 28.75230 10002 ft 273 kts 292°
2026-04-16 13:22 62.92569 28.71358 9999 ft 274 kts 290°
2026-04-16 13:22 62.93237 28.67442 9997 ft 274 kts 290°
2026-04-16 13:22 62.93652 28.63399 9994 ft 273 kts 269°
2026-04-16 13:23 62.93103 28.59449 10009 ft 275 kts 238°
2026-04-16 13:23 62.91699 28.56653 9996 ft 276 kts 207°
2026-04-16 13:23 62.89819 28.55792 9997 ft 284 kts 178°
2026-04-16 13:23 62.87946 28.57100 9998 ft 286 kts 148°
2026-04-16 13:24 62.86600 28.60247 10004 ft 286 kts 119°
2026-04-16 13:24 62.86121 28.64444 9999 ft 285 kts 90°
2026-04-16 13:24 62.86240 28.68739 10004 ft 283 kts 84°
2026-04-16 13:24 62.86375 28.73034 10000 ft 283 kts 88°
2026-04-16 13:25 62.86285 28.77338 10000 ft 283 kts 97°
2026-04-16 13:25 62.85900 28.81584 10000 ft 285 kts 104°
2026-04-16 13:25 62.85389 28.85788 10000 ft 286 kts 105°
2026-04-16 13:25 62.84857 28.89990 10002 ft 286 kts 105°
2026-04-16 13:26 62.84342 28.94211 9999 ft 286 kts 104°
2026-04-16 13:26 62.83854 28.98430 9997 ft 286 kts 104°
2026-04-16 13:26 62.83378 29.02649 9997 ft 286 kts 104°
2026-04-16 13:26 62.82908 29.06772 9659 ft 272 kts 104°
2026-04-16 13:27 62.82445 29.10714 9031 ft 257 kts 104°
2026-04-16 13:27 62.82017 29.14416 8397 ft 247 kts 104°
2026-04-16 13:27 62.81625 29.17865 8386 ft 214 kts 104°
2026-04-16 13:27 62.81282 29.20908 8133 ft 215 kts 103°
2026-04-16 13:28 62.80918 29.24392 7886 ft 243 kts 103°
2026-04-16 13:28 62.80489 29.28142 7644 ft 267 kts 104°
2026-04-16 13:28 62.80013 29.32209 7391 ft 282 kts 104°
2026-04-16 13:28 62.79415 29.36300 7166 ft 282 kts 111°
2026-04-16 13:29 62.78742 29.39851 6912 ft 226 kts 113°
2026-04-16 13:29 62.78182 29.42791 6598 ft 196 kts 112°
2026-04-16 13:29 62.77712 29.45478 6233 ft 195 kts 110°
2026-04-16 13:29 62.77215 29.48564 5907 ft 231 kts 109°
2026-04-16 13:30 62.76659 29.52008 5643 ft 249 kts 110°
2026-04-16 13:30 62.76043 29.55647 5395 ft 259 kts 110°
2026-04-16 13:30 62.75413 29.59383 5160 ft 264 kts 110°
2026-04-16 13:30 62.74772 29.63172 4937 ft 263 kts 110°
2026-04-16 13:31 62.74156 29.66771 4687 ft 249 kts 110°
2026-04-16 13:31 62.73553 29.70258 4443 ft 243 kts 111°
2026-04-16 13:31 62.72943 29.73751 4190 ft 248 kts 110°
2026-04-16 13:31 62.72343 29.77241 3940 ft 244 kts 110°
2026-04-16 13:32 62.71755 29.80681 3689 ft 241 kts 110°
2026-04-16 13:32 62.71172 29.84098 3454 ft 239 kts 110°
2026-04-16 13:32 62.70605 29.87445 3393 ft 232 kts 110°
2026-04-16 13:32 62.70060 29.90657 3347 ft 226 kts 111°
2026-04-16 13:33 62.69510 29.93844 3294 ft 223 kts 110°
2026-04-16 13:33 62.68968 29.96988 3237 ft 221 kts 111°
2026-04-16 13:33 62.68409 30.00071 3176 ft 215 kts 117°
2026-04-16 13:33 62.67335 30.02220 3132 ft 214 kts 158°
2026-04-16 13:34 62.65879 30.02388 3092 ft 213 kts 197°
2026-04-16 13:34 62.64520 30.01254 3035 ft 208 kts 194°
2026-04-16 13:34 62.63133 30.00500 2986 ft 205 kts 205°
2026-04-16 13:34 62.61916 29.98923 2932 ft 203 kts 220°
2026-04-16 13:35 62.61247 29.96291 2933 ft 205 kts 262°
2026-04-16 13:35 62.61337 29.94266 2914 ft 206 kts 289°
2026-04-16 13:35 62.62633 29.91586 2899 ft 188 kts 345°
2026-04-16 13:35 62.63845 29.91947 2901 ft 174 kts 31°
2026-04-16 13:36 62.64529 29.93910 2892 ft 160 kts 77°
2026-04-16 13:36 62.64337 29.96232 2901 ft 173 kts 126°
2026-04-16 13:36 62.63274 29.97708 2909 ft 196 kts 170°
2026-04-16 13:36 62.62360 29.97602 2904 ft 201 kts 198°
2026-04-16 13:37 62.61333 29.95815 2916 ft 187 kts 241°
2026-04-16 13:37 62.60892 29.93277 2902 ft 174 kts 258°
2026-04-16 13:37 62.61077 29.90794 2877 ft 168 kts 294°
2026-04-16 13:37 62.61553 29.88421 2697 ft 175 kts 292°
2026-04-16 13:38 62.62022 29.85908 2461 ft 180 kts 290°
2026-04-16 13:38 62.62434 29.83400 2225 ft 173 kts 289°
2026-04-16 13:38 62.62833 29.80965 1989 ft 169 kts 290°
2026-04-16 13:38 62.63241 29.78608 1761 ft 164 kts 291°
2026-04-16 13:39 62.63632 29.76331 1538 ft 158 kts 290°
2026-04-16 13:39 62.63993 29.74224 1354 ft 141 kts 290°
2026-04-16 13:39 62.64300 29.72418 1183 ft 112 kts 290°
2026-04-16 13:39 62.64559 29.70905 1038 ft 108 kts 290°
2026-04-16 13:40 62.64813 29.69488 832 ft 93 kts 307°
2026-04-16 13:40 62.65010 29.68229 680 ft 92 kts 288°
2026-04-16 13:40 62.65256 29.66864 667 ft 106 kts 286°
2026-04-16 13:40 62.65498 29.65441 552 ft 109 kts 290°
2026-04-16 13:41 62.65746 29.63975 411 ft 94 kts 290°
2026-04-16 13:41 62.65940 29.62838 387 ft 47 kts 290°
2026-04-16 13:41 62.65993 29.62467 387 ft 19 kts 285°
2026-04-16 13:41 62.66050 29.62106 387 ft 26 kts 291°
2026-04-16 13:42 62.66097 29.61806 390 ft 6 kts 251°
2026-04-16 13:42 62.66006 29.61704 391 ft 18 kts 200°
2026-04-16 13:42 62.65897 29.61614 391 ft 15 kts 198°
2026-04-16 13:42 62.65811 29.61526 391 ft 10 kts 237°
2026-04-16 13:43 62.65819 29.61462 392 ft 10 kts 288°
2026-04-16 13:43 62.65825 29.61425 392 ft 0 kts 289°
2026-04-16 14:45 62.65825 29.61423 392 ft 2 kts 289°
2026-04-16 14:46 62.65840 29.61419 392 ft 12 kts 25°
2026-04-16 14:46 62.65876 29.61579 391 ft 11 kts 67°
2026-04-16 14:46 62.65948 29.61662 391 ft 14 kts 20°
2026-04-16 14:46 62.66040 29.61733 391 ft 14 kts 19°
2026-04-16 14:47 62.66101 29.61874 389 ft 14 kts 97°
2026-04-16 14:47 62.66064 29.62091 388 ft 21 kts 111°
2026-04-16 14:47 62.65994 29.62494 387 ft 29 kts 110°
2026-04-16 14:47 62.65926 29.62907 386 ft 29 kts 109°
2026-04-16 14:48 62.65856 29.63332 382 ft 31 kts 112°
2026-04-16 14:48 62.65778 29.63732 378 ft 17 kts 117°
2026-04-16 14:48 62.65764 29.63822 379 ft 0 kts 48°
2026-04-16 14:48 62.65781 29.63815 378 ft 1 kts 313°
2026-04-16 14:49 62.65821 29.63531 380 ft 37 kts 289°
2026-04-16 14:49 62.66016 29.62376 428 ft 125 kts 289°
2026-04-16 14:49 62.66308 29.60457 994 ft 143 kts 287°
2026-04-16 14:49 62.66648 29.58184 1467 ft 164 kts 288°